Time,TemperatureF,DewpointF,PressureIn,WindDirection,WindDirectionDegrees,WindSpeedMPH,WindSpeedGustMPH,Humidity,HourlyPrecipIn,Conditions,Clouds,dailyrainin,SoftwareType,DateUTC
2013-04-15 00:00:00,58.0,52.9,29.90,SE,135,4.0,9.0,83,0.00,,---,0.00,VWS V14.01,2013-04-15 07:00:00,
2013-04-15 00:30:00,58.1,53.0,29.90,SE,135,4.0,10.0,83,0.00,,---,0.00,VWS V14.01,2013-04-15 07:30:00,
2013-04-15 01:00:00,57.9,52.1,29.89,ESE,112,4.0,10.0,81,0.00,,---,0.00,VWS V14.01,2013-04-15 08:00:00,
2013-04-15 01:30:00,57.9,52.1,29.89,SE,135,5.0,10.0,81,0.00,,---,0.00,VWS V14.01,2013-04-15 08:30:00,
2013-04-15 02:00:00,57.8,52.0,29.89,SE,135,5.0,11.0,81,0.00,,---,0.00,VWS V14.01,2013-04-15 09:00:00,
2013-04-15 02:30:00,57.7,51.9,29.88,SE,135,4.0,11.0,81,0.00,,---,0.00,VWS V14.01,2013-04-15 09:30:00,
2013-04-15 03:00:00,57.7,52.2,29.88,SE,135,4.0,10.0,82,0.00,,---,0.00,VWS V14.01,2013-04-15 10:00:00,
2013-04-15 03:30:00,57.5,52.1,29.87,SE,135,4.0,11.0,82,0.00,,---,0.00,VWS V14.01,2013-04-15 10:30:00,
2013-04-15 04:00:00,57.6,52.2,29.88,SE,135,4.0,9.0,82,0.00,,---,0.00,VWS V14.01,2013-04-15 11:00:00,
2013-04-15 04:30:00,57.6,52.2,29.88,SE,135,3.0,9.0,82,0.00,,---,0.00,VWS V14.01,2013-04-15 11:30:00,
2013-04-15 05:00:00,57.6,52.2,29.88,SSE,158,2.0,9.0,82,0.00,,---,0.00,VWS V14.01,2013-04-15 12:00:00,
2013-04-15 05:30:00,57.9,53.7,29.87,SSE,158,4.0,10.0,86,0.00,,---,0.00,VWS V14.01,2013-04-15 12:30:00,
2013-04-15 06:00:00,57.9,54.7,29.88,SSE,158,4.0,10.0,89,0.00,,---,0.00,VWS V14.01,2013-04-15 13:00:00,
2013-04-15 06:30:00,57.6,54.7,29.88,SSW,202,4.0,9.0,90,0.00,,---,0.00,VWS V14.01,2013-04-15 13:30:00,
2013-04-15 07:00:00,57.5,54.6,29.89,South,180,4.0,9.0,90,0.00,,---,0.00,VWS V14.01,2013-04-15 14:00:00,
2013-04-15 07:30:00,57.5,54.3,29.90,SSW,202,5.0,11.0,89,0.00,,---,0.00,VWS V14.01,2013-04-15 14:30:00,
2013-04-15 08:00:00,57.6,55.0,29.90,SSW,202,5.0,11.0,91,0.00,,---,0.00,VWS V14.01,2013-04-15 15:00:00,
2013-04-15 08:30:00,57.2,54.9,29.91,SSW,202,5.0,12.0,92,0.00,,---,0.00,VWS V14.01,2013-04-15 15:30:00,
2013-04-15 09:00:00,57.0,54.7,29.91,SSW,202,4.0,9.0,92,0.00,,---,0.00,VWS V14.01,2013-04-15 16:00:00,
2013-04-15 09:30:00,57.7,55.4,29.91,SSW,202,4.0,10.0,92,0.00,,---,0.00,VWS V14.01,2013-04-15 16:30:00,
2013-04-15 10:00:00,59.3,55.4,29.92,SW,225,6.0,13.0,87,0.00,,---,0.00,VWS V14.01,2013-04-15 17:00:00,
2013-04-15 10:30:00,60.3,55.8,29.93,SW,225,6.0,13.0,85,0.00,,---,0.00,VWS V14.01,2013-04-15 17:30:00,
2013-04-15 11:00:00,61.4,55.2,29.94,SSW,202,6.0,13.0,80,0.00,,---,0.00,VWS V14.01,2013-04-15 18:00:00,
2013-04-15 11:30:00,61.5,54.2,29.94,SSW,202,7.0,14.0,77,0.00,,---,0.00,VWS V14.01,2013-04-15 18:30:00,
2013-04-15 12:00:00,62.1,54.5,29.94,SSW,202,7.0,16.0,76,0.00,,---,0.00,VWS V14.01,2013-04-15 19:00:00,
2013-04-15 12:30:00,63.3,54.9,29.94,SW,225,7.0,15.0,74,0.00,,---,0.00,VWS V14.01,2013-04-15 19:30:00,
2013-04-15 13:00:00,64.7,55.9,29.94,South,180,7.0,16.0,73,0.00,,---,0.00,VWS V14.01,2013-04-15 20:00:00,
2013-04-15 13:30:00,65.5,55.5,29.94,SSW,202,8.0,18.0,70,0.00,,---,0.00,VWS V14.01,2013-04-15 20:30:00,
2013-04-15 14:00:00,65.2,55.2,29.93,SSW,202,7.0,15.0,70,0.00,,---,0.00,VWS V14.01,2013-04-15 21:00:00,
2013-04-15 14:30:00,65.7,55.3,29.92,South,180,7.0,18.0,69,0.00,,---,0.00,VWS V14.01,2013-04-15 21:30:00,
2013-04-15 15:00:00,65.4,55.4,29.91,South,180,8.0,17.0,70,0.00,,---,0.00,VWS V14.01,2013-04-15 22:00:00,
2013-04-15 15:30:00,65.5,55.1,29.89,SSW,202,9.0,17.0,69,0.00,,---,0.00,VWS V14.01,2013-04-15 22:30:00,
2013-04-15 16:00:00,65.4,55.4,29.91,South,180,8.0,17.0,70,0.00,,---,0.00,VWS V14.01,2013-04-15 23:00:00,
2013-04-15 16:28:00,63.4,53.8,29.88,SW,219,7.0,19.0,71,0.00,,---,0.00,VWS V14.01,2013-04-15 23:28:00,
2013-04-15 16:30:00,63.4,53.8,29.88,SW,219,7.0,19.0,71,0.00,,---,0.00,VWS V14.01,2013-04-15 23:30:00,
2013-04-15 16:58:00,63.0,53.8,29.88,SW,221,3.0,14.0,72,0.00,,---,0.00,VWS V14.01,2013-04-15 23:58:00,
2013-04-15 17:00:00,63.0,53.8,29.88,SW,221,3.0,14.0,72,0.00,,---,0.00,VWS V14.01,2013-04-16 00:00:00,
2013-04-15 17:28:00,62.3,53.2,29.88,South,191,5.0,14.0,72,0.00,,---,0.00,VWS V14.01,2013-04-16 00:28:00,
2013-04-15 17:30:00,62.3,53.2,29.88,South,191,5.0,14.0,72,0.00,,---,0.00,VWS V14.01,2013-04-16 00:30:00,
2013-04-15 17:58:00,60.5,53.3,29.88,South,188,5.0,14.0,77,0.00,,---,0.00,VWS V14.01,2013-04-16 00:58:00,
2013-04-15 18:00:00,60.5,53.3,29.88,South,188,5.0,14.0,77,0.00,,---,0.00,VWS V14.01,2013-04-16 01:00:00,
2013-04-15 18:28:00,59.9,52.7,29.88,South,180,6.0,12.0,77,0.00,,---,0.00,VWS V14.01,2013-04-16 01:28:00,
2013-04-15 18:30:00,59.9,52.7,29.88,South,180,6.0,12.0,77,0.00,,---,0.00,VWS V14.01,2013-04-16 01:30:00,
2013-04-15 18:58:00,59.5,52.3,29.89,South,188,2.0,15.0,77,0.00,,---,0.00,VWS V14.01,2013-04-16 01:58:00,
2013-04-15 19:00:00,59.5,52.3,29.89,South,188,2.0,15.0,77,0.00,,---,0.00,VWS V14.01,2013-04-16 02:00:00,
2013-04-15 19:28:00,58.8,50.9,29.89,SSW,208,3.0,11.0,75,0.00,,---,0.00,VWS V14.01,2013-04-16 02:28:00,
2013-04-15 19:30:00,58.8,50.9,29.89,SSW,208,3.0,11.0,75,0.00,,---,0.00,VWS V14.01,2013-04-16 02:30:00,
2013-04-15 19:58:00,58.6,52.1,29.89,South,169,5.0,8.0,79,0.00,,---,0.00,VWS V14.01,2013-04-16 02:58:00,
2013-04-15 20:00:00,58.6,52.1,29.89,South,169,5.0,8.0,79,0.00,,---,0.00,VWS V14.01,2013-04-16 03:00:00,
2013-04-15 20:28:00,58.3,51.5,29.89,SW,229,3.0,10.0,78,0.00,,---,0.00,VWS V14.01,2013-04-16 03:28:00,
2013-04-15 20:30:00,58.3,51.5,29.89,SW,229,3.0,10.0,78,0.00,,---,0.00,VWS V14.01,2013-04-16 03:30:00,
2013-04-15 21:00:00,57.8,51.7,29.90,SSW,202,6.0,15.0,80,0.00,,---,0.00,VWS V14.01,2013-04-16 04:00:00,
2013-04-15 21:30:00,57.7,51.6,29.91,SW,225,4.0,8.0,80,0.00,,---,0.00,VWS V14.01,2013-04-16 04:30:00,
2013-04-15 22:00:00,57.6,52.2,29.92,SSW,202,5.0,14.0,82,0.00,,---,0.00,VWS V14.01,2013-04-16 05:00:00,
2013-04-15 22:30:00,57.0,51.6,29.92,SSW,202,5.0,13.0,82,0.00,,---,0.00,VWS V14.01,2013-04-16 05:30:00,
2013-04-15 23:00:00,57.1,51.0,29.92,SSW,202,4.0,9.0,80,0.00,,---,0.00,VWS V14.01,2013-04-16 06:00:00,
2013-04-15 23:30:00,57.2,51.1,29.91,South,180,5.0,10.0,80,0.00,,---,0.00,VWS V14.01,2013-04-16 06:30:00,